• Join FlightAware (Why Join?)
  • Login
  • US Flag 
02:18PM EST


 

Airport Tracker/Info


-or-


 

Live Flight TrackerFlight Track Log ✈ KLM1000 ✈ 19-Nov-2013 ✈ EGLL / LHR - EHAM / AMS

Flight Track Log - Related Links

Times and Time Zones

All times are in EST time to prevent confusion due to time zone crossing. See the KLM1000 flight status page for this flight to view local times or setup timezone preferences in your user account.

Time Position Orientation Groundspeed Altitude Reporting Facility
EST Latitude Longitude Course Direction KTS MPH feet Rate Location/Type
01:58AM 51.4647 -0.4827 269° West 153 176 1,000  Level FlightAware ADS-B
01:58AM 51.4666 -0.5136 275° West 150 173 1,700 1,636 Climbing FlightAware ADS-B (EGLF / FAB)
01:58AM 51.4677 -0.5199 286° West 150 173 1,900 2,500 Climbing FlightAware ADS-B
01:59AM 51.4695 -0.5261 295° West 149 171 2,200 2,400 Climbing FlightAware ADS-B
01:59AM 51.4720 -0.5342 296° West 156 180 2,500 2,000 Climbing FlightAware ADS-B (EGLF / FAB)
01:59AM 51.4733 -0.5383 298° West 157 181 2,600 2,333 Climbing FlightAware ADS-B
01:59AM 51.4782 -0.5516 300° West 161 185 3,200 2,400 Climbing FlightAware ADS-B (EGLC / LCY)
01:59AM 51.4788 -0.5537 296° West 161 185 3,200 1,765 Level FlightAware ADS-B
01:59AM 51.4846 -0.5712 298° West 174 200 3,700 1,895 Climbing FlightAware ADS-B
01:59AM 51.4850 -0.5723 303° West 182 209 3,800 923 Climbing FlightAware ADS-B (EPRZ / RZE)
02:00AM 51.4900 -0.5873 298° West 201 231 3,900 800 Climbing FlightAware ADS-B
02:00AM 51.4914 -0.5914 299° West 208 239 4,000 1,200 Climbing FlightAware ADS-B
02:00AM 51.4970 -0.6084 298° West 226 260 4,200 1,500 Climbing FlightAware ADS-B
02:00AM 51.5018 -0.6239 297° West 239 275 4,500 1,714 Climbing FlightAware ADS-B
02:00AM 51.5043 -0.6300 303° West 240 276 4,600 1,714 Climbing FlightAware ADS-B
02:00AM 51.5062 -0.6345 305° West 240 276 4,700 1,000 Climbing FlightAware ADS-B
02:00AM 51.5080 -0.6385 306° West 239 275 4,700 1,500 Level FlightAware ADS-B
02:00AM 51.5096 -0.6410 315° West 240 276 4,800 1,200 Climbing FlightAware ADS-B
02:00AM 51.5122 -0.6444 321° Northwest 241 277 4,800 1,333 Level FlightAware ADS-B (EGLF / FAB)
02:00AM 51.5178 -0.6498 329° Northwest 242 278 5,000 2,000 Climbing FlightAware ADS-B
02:00AM 51.5214 -0.6518 341° North 243 280 5,100 750 Climbing FlightAware ADS-B
02:00AM 51.5256 -0.6535 346° North 244 281 5,100 1,000 Level FlightAware ADS-B
02:00AM 51.5279 -0.6539 353° North 245 282 5,200 2,000 Climbing FlightAware ADS-B
02:00AM 51.5297 -0.6541 357° North 246 283 5,200 1,200 Level FlightAware ADS-B
02:01AM 51.5344 -0.6539 North 248 285 5,300 1,500 Climbing FlightAware ADS-B
02:01AM 51.5385 -0.6527 10° North 251 289 5,400 1,500 Climbing FlightAware ADS-B
02:01AM 51.5427 -0.6504 19° North 255 293 5,500 1,200 Climbing FlightAware ADS-B
02:01AM 51.5437 -0.6497 23° Northeast 255 293 5,500 2,000 Level FlightAware ADS-B (EGLF / FAB)
02:01AM 51.5463 -0.6480 22° Northeast 257 296 5,600 2,400 Climbing FlightAware ADS-B
02:01AM 51.5493 -0.6450 32° Northeast 258 297 5,700 1,500 Climbing FlightAware ADS-B
02:01AM 51.5482 -0.6461 213° Southwest 258 297 5,700 1,500 Level FlightAware ADS-B (EPRZ / RZE)
02:01AM 51.5525 -0.6402 41° Northeast 262 302 5,800 3,000 Climbing FlightAware ADS-B
02:01AM 51.5538 -0.6389 31° Northeast 262 302 5,900 4,500 Climbing FlightAware ADS-B (EGLF / FAB)
02:01AM 51.5566 -0.6332 52° Northeast 264 304 6,100 3,600 Climbing FlightAware ADS-B
02:01AM 51.5577 -0.6316 40° Northeast 264 304 6,200 3,000 Climbing FlightAware ADS-B (EPRZ / RZE)
02:01AM 51.5682 -0.6100 52° Northeast 268 308 6,900 3,000 Climbing FlightAware ADS-B
02:01AM 51.5729 -0.6005 51° Northeast 271 312 7,200 2,500 Climbing FlightAware ADS-B
02:01AM 51.5778 -0.5910 51° Northeast 274 315 7,400 3,000 Climbing FlightAware ADS-B
02:02AM 51.5885 -0.5687 52° Northeast 277 319 8,200 3,200 Climbing FlightAware ADS-B (EGLC / LCY)
02:02AM 51.5900 -0.5670 36° Northeast 278 320 8,200 2,800 Level FlightAware ADS-B
02:02AM 51.6007 -0.5444 53° Northeast 280 322 8,900 3,200 Climbing FlightAware ADS-B
02:02AM 51.6023 -0.5412 51° Northeast 280 322 9,000 3,200 Climbing FlightAware ADS-B
02:02AM 51.6130 -0.5201 51° Northeast 283 326 9,700 3,176 Climbing FlightAware ADS-B (EGLC / LCY)
02:02AM 51.6160 -0.5153 45° Northeast 284 327 9,900 4,000 Climbing FlightAware ADS-B
02:02AM 51.6068 -0.5331 230° Southwest 282 325 10,100 1,600 Climbing FlightAware ADS-B
02:03AM 51.6424 -0.4643 50° Northeast 316 364 10,700 1,400 Climbing FlightAware ADS-B
02:03AM 51.6447 -0.4588 56° Northeast 320 368 10,800 1,548 Climbing FlightAware ADS-B (EPRZ / RZE)
02:03AM 51.6732 -0.4045 50° Northeast 351 404 11,500 1,600 Climbing FlightAware ADS-B
02:03AM 51.6758 -0.3985 55° Northeast 352 405 11,600 2,800 Climbing FlightAware ADS-B
02:04AM 51.7053 -0.3435 49° Northeast 358 412 12,900 2,909 Climbing FlightAware ADS-B
02:04AM 51.7102 -0.3333 52° Northeast 359 413 13,200 2,250 Climbing FlightAware ADS-B
02:04AM 51.7397 -0.2766 50° Northeast 380 437 14,100 2,129 Climbing FlightAware ADS-B
02:04AM 51.7443 -0.2680 49° Northeast 382 440 14,300 2,800 Climbing FlightAware ADS-B
02:05AM 51.7759 -0.2096 49° Northeast 392 451 15,500 3,000 Climbing FlightAware ADS-B
02:05AM 51.7797 -0.2030 47° Northeast 392 451 15,800 3,097 Climbing FlightAware ADS-B
02:05AM 51.8132 -0.1437 48° Northeast 399 459 17,100 2,813 Climbing FlightAware ADS-B
02:05AM 51.8191 -0.1327 49° Northeast 399 459 17,300 2,600 Climbing FlightAware ADS-B
02:06AM 51.8517 -0.0768 47° Northeast 410 472 18,400 2,647 Climbing FlightAware ADS-B
02:06AM 51.8629 -0.0563 49° Northeast 414 476 18,800 2,444 Climbing FlightAware ADS-B
02:06AM 51.8859 -0.0137 49° Northeast 422 486 19,500 2,182 Climbing FlightAware ADS-B
02:06AM 51.8874 -0.0088 64° Northeast 422 486 19,600 2,727 Climbing FlightAware ADS-B
02:06AM 51.8965 0.0159 59° Northeast 422 486 20,000 3,333 Climbing FlightAware ADS-B
02:06AM 51.8977 0.0217 71° East 421 484 20,100 3,103 Climbing FlightAware ADS-B (EPRZ / RZE)
02:07AM 51.9132 0.1023 73° East 419 482 21,500 3,086 Climbing FlightAware ADS-B
02:07AM 51.9177 0.1260 73° East 418 481 21,900 2,364 Climbing FlightAware ADS-B (EGLC / LCY)
02:07AM 51.9327 0.1996 72° East 407 468 22,800 2,000 Climbing FlightAware ADS-B
02:07AM 51.9357 0.2139 71° East 402 463 22,900 1,200 Climbing FlightAware ADS-B (EPRZ / RZE)
02:08AM 51.9503 0.2856 72° East 406 467 23,400 1,500 Climbing FlightAware ADS-B
02:08AM 51.9570 0.3173 71° East 409 471 23,800 1,400 Climbing FlightAware ADS-B
02:08AM 51.9686 0.3765 72° East 422 486 24,100 1,636 Climbing FlightAware ADS-B
02:09AM 51.9766 0.4158 72° East 425 489 24,700 2,364 Climbing FlightAware ADS-B
02:09AM 51.9884 0.4733 72° East 426 490 25,400 2,333 Climbing FlightAware ADS-B
02:09AM 51.9992 0.5249 71° East 429 494 26,100 2,400 Climbing FlightAware ADS-B
02:09AM 52.0074 0.5644 71° East 429 494 26,600 1,800 Climbing FlightAware ADS-B
02:10AM 52.0172 0.6102 71° East 430 495 27,000 800 Climbing FlightAware ADS-B
02:10AM 52.0272 0.6554 70° East 425 489 27,000  Level FlightAware ADS-B
02:10AM 52.0347 0.6915 71° East 421 484 27,000  Level FlightAware ADS-B
02:11AM 52.0501 0.7598 70° East 420 483 27,000  Level FlightAware ADS-B
02:11AM 52.0554 0.7867 72° East 420 483 27,000  Level FlightAware ADS-B (EGLC / LCY)
02:11AM 52.0573 0.7955 71° East 417 480 27,000  Level FlightAware ADS-B (EGLC / LCY)
02:11AM 52.0605 0.8102 70° East 417 480 27,000  Level FlightAware ADS-B (EPRZ / RZE)
02:11AM 52.0708 0.8547 69° East 419 482 27,000  Level FlightAware ADS-B
02:11AM 52.0811 0.9026 71° East 430 495 27,000  Level FlightAware ADS-B
02:12AM 52.0939 0.9619 71° East 448 516 27,000  Level FlightAware ADS-B
02:12AM 52.1070 1.0235 71° East 462 532 27,000  Level FlightAware ADS-B (EPRZ / RZE)
02:12AM 52.1145 1.0602 72° East 469 540 27,000  Level FlightAware ADS-B
02:12AM 52.1283 1.1275 71° East 477 549 27,000  Level FlightAware ADS-B (EPRZ / RZE)
02:13AM 52.1360 1.1649 71° East 478 550 27,000  Level FlightAware ADS-B
02:13AM 52.1546 1.2602 72° East 471 542 27,000  Level FlightAware ADS-B (EPRZ / RZE)
02:13AM 52.1561 1.2743 80° East 468 539 27,000  Level FlightAware ADS-B
02:14AM 52.1620 1.3748 84° East 464 534 27,000  Level FlightAware ADS-B (EPRZ / RZE)
02:14AM 52.1624 1.3818 85° East 464 534 27,000  Level FlightAware ADS-B
02:14AM 52.1668 1.4651 85° East 465 535 27,000  Level FlightAware ADS-B
02:14AM 52.1685 1.4966 85° East 465 535 27,000  Level FlightAware ADS-B
02:15AM 52.1742 1.6045 85° East 465 535 27,000  Level FlightAware ADS-B
02:15AM 52.1750 1.6183 85° East 465 535 27,000  Level FlightAware ADS-B
02:15AM 52.1810 1.7297 85° East 465 535 27,000  Level FlightAware ADS-B (EPRZ / RZE)
02:15AM 52.1815 1.7369 84° East 465 535 27,000 -143 Level FlightAware ADS-B
02:16AM 52.1886 1.8725 85° East 462 532 26,900 -395 Descending FlightAware ADS-B (EPRZ / RZE)
02:17AM 52.1953 1.9932 85° East 439 505 26,500 -1,342 Descending FlightAware ADS-B (EPRZ / RZE)
02:17AM 52.2038 2.1206 84° East 462 532 25,200 -1,886 Descending FlightAware ADS-B (EPRZ / RZE)
02:18AM 52.2206 2.2176 74° East 458 527 24,300 -911 Descending FlightAware ADS-B (EPRZ / RZE)
02:19AM 52.2518 2.3909 74° East 402 463 24,000 -231 Descending FlightAware UK
02:19AM 52.2698 2.4890 73° East 404 465 24,000 -122 Level FlightAware UK
02:19AM 52.2811 2.5492 73° East 456 525 23,900 -778 Descending FlightAware ADS-B (EPRZ / RZE)
02:20AM 52.3023 2.6674 73° East 400 460 23,300 -1,300 Descending FlightAware UK
02:20AM 52.3168 2.7483 73° East 451 519 22,600 -1,923 Descending FlightAware ADS-B (EPRZ / RZE)
02:21AM 52.3468 2.9162 73° East 386 444 20,800 -2,084 Descending FlightAware UK
02:22AM 52.3693 3.0464 74° East 380 437 19,300 -2,063 Descending FlightAware UK
02:23AM 52.3972 3.2078 74° East 368 423 17,500 -2,071 Descending FlightAware UK
02:23AM 52.4126 3.2956 74° East 368 423 16,400 -1,800 Descending FlightAware UK
02:24AM 52.4270 3.3812 75° East 354 407 15,700 -1,000 Descending FlightAware UK
02:24AM 52.4411 3.4611 74° East 328 377 15,400 -700 Descending FlightAware UK
02:25AM 52.4538 3.5359 74° East 310 357 15,000 -1,182 Descending FlightAware UK
02:26AM 52.4684 3.6232 75° East 304 350 14,100 -1,545 Descending FlightAware UK
02:26AM 52.4799 3.6954 75° East 300 345 13,300 -1,545 Descending FlightAware UK
02:27AM 52.4946 3.7808 74° East 298 343 12,400 -1,364 Descending FlightAware UK
02:27AM 52.5075 3.8509 73° East 294 338 11,800 -1,364 Descending FlightAware UK
02:28AM 52.5195 3.9324 76° East 292 336 10,900 -1,667 Descending FlightAware UK
02:28AM 52.5245 3.9743 79° East 296 341 10,300 -1,800 Descending FlightAware UK
02:28AM 52.5167 4.0010 116° Southeast 292 336 10,000 -1,313 Descending FlightAware UK
02:30AM 52.4635 4.1553 119° Southeast 1 1 8,200 -1,391 Descending FlightAware UK
02:31AM 52.4025 4.2104 151° Southeast 1 1 6,800 -1,556 Descending FlightAware UK
02:33AM 52.3707 4.3999 105° East  Level Estimated
02:40AM 52.3086 4.7639 105° East  Level Estimated
02:41AM 52.3086 4.7639 348° North  Level Estimated
02:42AM 52.3086 4.7639 348° North  Level Estimated
02:43AM 52.3086 4.7639 348° North  Level Estimated
02:44AM 52.3086 4.7639 348° North  Level Estimated
02:45AM 52.3086 4.7639 348° North  Level Estimated
02:46AM 52.3086 4.7639 348° North  Level Estimated